Dewpoint
61 63 60 59 58 56 50 51 36 31 38 34 38 31 26 33 37 39 39 42 40 41 45 49 49 48 44 45 44 48 51 48 50 42 42 50 68 68 67 68 70 70 70 71 72 72 71 73 73 72 72 72 72 72 72 72 72 72 72 71 71 71 71 70 70 69 69 68 68 68 67 68 68 68 68 67 67 70 71 70 69 69 69 69 69 69 68 68 69 69 69 70 70 70 70 71 71
57 58 57 55 53 46 41 49 34 29 24 25 24 30 20 22 36 35 38 41 40 41 48 52 53 54 54 54 54 51 48 54 50 56 64 67 67 67 68 69 70 70 70 71 71 71 71 72 73 72 72 72 72 72 72 72 72 72 72 71 71 71 71 70 70 69 68 67 67 67 67 68 68 68 68 67 69 70 71 69 69 69 69 69 68 68 68 69 69 69 70 70 70 70 70 70 71
53 56 55 54 52 45 42 37 33 28 18 19 22 22 22 17 18 19 24 37 39 47 52 52 51 50 47 44 44 45 45 62 64 65 66 67 66 66 68 69 70 70 70 71 71 71 72 72 73 72 72 72 72 72 72 72 72 72 72 71 71 71 71 71 70 69 67 67 67 67 67 68 68 68 68 68 68 69 70 70 70 69 68 68 68 68 68 69 69 69 69 69 69 69 70 70 70
53 55 53 54 49 34 34 27 30 24 22 19 22 22 21 19 19 21 22 33 42 51 50 47 46 49 42 40 46 43 55 60 63 66 65 66 66 67 68 69 71 70 70 71 71 71 71 72 73 72 72 72 72 72 72 72 72 72 72 71 71 71 71 70 70 70 69 68 68 68 68 68 68 68 67 66 67 69 70 70 69 68 68 68 68 68 68 69 69 69 69 69 69 70 70 70 70
51 55 51 39 35 33 28 29 23 22 18 21 19 21 29 21 19 22 38 36 47 50 48 48 46 49 49 45 47 43 44 63 65 66 66 67 68 68 68 69 70 70 70 70 71 71 71 72 72 72 72 72 72 72 72 72 72 72 72 71 71 71 70 70 70 70 70 68 68 68 68 68 68 68 67 67 68 69 70 69 68 68 68 68 68 68 68 69 69 69 69 70 70 70 71 70 71
49 51 50 43 36 31 21 20 22 20 19 21 18 18 19 19 22 32 45 47 48 48 50 52 45 49 52 55 55 55 59 51 64 66 67 67 67 68 69 70 69 69 70 70 70 71 70 72 72 72 72 72 72 72 72 72 72 72 72 72 72 71 70 70 71 71 70 69 69 68 68 69 70 69 68 68 70 70 69 69 69 69 68 68 69 69 69 68 68 69 69 70 71 71 71 71 71
45 42 39 35 39 29 24 19 16 17 17 20 18 18 19 20 23 33 44 45 46 48 52 53 51 48 47 54 56 59 63 64 65 65 67 67 67 68 69 69 69 69 70 70 70 70 71 72 72 73 72 72 72 72 72 72 72 72 72 72 72 71 71 71 71 70 70 70 69 69 68 69 70 71 70 71 70 70 69 69 68 68 69 69 69 69 69 68 69 70 70 71 70 70 70 70 70
49 25 34 29 27 24 25 21 19 18 17 20 20 19 21 26 25 34 43 43 44 44 52 54 53 51 53 57 50 59 66 66 66 67 67 67 67 68 68 69 69 69 69 70 70 70 72 72 72 73 72 72 72 72 72 72 72 72 72 72 72 72 72 71 71 70 69 70 70 69 69 69 70 71 71 71 71 70 68 68 68 69 69 68 69 69 68 69 70 70 71 70 70 70 70 70 70
29 24 37 20 24 24 19 19 18 20 19 20 18 28 48 32 25 26 40 41 45 52 54 54 54 49 51 56 57 60 66 67 67 68 67 67 67 68 68 68 68 68 69 69 70 71 71 72 72 72 72 72 72 72 72 72 72 72 72 72 72 72 72 71 70 69 69 69 69 69 69 69 69 70 70 70 70 69 68 69 69 69 68 68 69 69 69 70 70 70 70 70 70 70 70 70 69
26 24 22 23 20 19 17 16 17 16 18 19 19 22 22 24 24 24 24 40 45 53 55 55 55 53 56 56 57 59 65 67 67 67 67 67 67 68 68 68 68 68 68 69 70 71 71 72 72 72 72 72 72 72 72 72 72 72 72 72 72 72 72 71 70 70 69 69 69 69 68 69 69 69 70 70 70 70 69 69 69 69 69 69 70 69 69 70 70 70 70 70 70 70 70 70 70
22 23 27 24 25 18 16 15 16 16 18 19 20 22 22 24 24 32 42 45 51 53 53 54 55 56 56 56 57 64 67 67 66 66 67 67 67 67 68 68 69 69 69 70 71 71 71 71 72 73 72 72 72 72 72 72 72 72 72 72 72 72 72 71 71 70 69 69 69 68 68 68 68 69 69 69 69 70 69 69 69 69 69 69 70 70 70 70 70 70 70 70 70 70 70 70 70
20 21 25 18 18 17 17 16 16 17 19 19 19 22 25 25 26 25 27 48 51 52 53 55 54 57 55 56 57 64 66 66 66 67 67 67 67 67 68 69 69 69 70 70 71 71 71 70 71 72 73 72 72 72 72 72 72 72 72 72 72 72 71 71 71 70 69 69 68 68 68 68 69 68 68 68 69 69 69 69 69 69 69 70 70 70 70 70 70 70 70 70 70 70 70 70 70
19 24 20 19 18 18 21 16 16 22 20 18 18 22 25 26 26 30 46 50 51 48 49 53 58 57 54 56 59 64 64 65 66 66 66 66 67 67 68 69 69 69 70 70 71 70 70 71 71 72 72 73 72 72 72 72 72 72 72 71 72 72 71 71 70 70 69 69 68 68 68 68 69 68 68 68 69 68 68 68 68 69 69 69 70 70 70 70 69 69 70 69 69 70 70 70 70
21 22 20 17 22 17 17 18 17 17 16 19 20 24 26 25 26 44 47 45 47 47 52 55 57 57 57 57 58 62 63 65 66 66 66 66 67 68 68 69 69 70 70 70 70 70 70 71 71 71 71 71 71 72 72 72 72 72 72 72 72 71 71 71 70 69 69 69 68 68 67 67 68 68 68 68 68 68 68 68 68 68 68 69 70 70 70 69 69 69 69 69 69 70 69 70 70
19 26 23 22 21 19 17 16 16 16 16 19 21 26 27 30 26 35 39 45 48 54 58 59 57 52 52 53 55 62 63 65 65 66 66 67 67 68 68 69 69 70 70 70 70 70 70 70 71 71 71 71 71 71 71 71 72 72 71 72 72 71 71 70 70 69 69 68 68 68 67 67 67 67 67 67 67 67 67 67 67 68 68 68 69 69 69 69 69 69 69 69 69 69 69 70 70
23 21 24 22 17 17 18 17 17 16 16 19 21 26 25 26 29 33 38 46 53 58 57 56 57 52 54 53 57 62 64 65 65 66 67 67 67 68 68 68 69 69 69 70 70 70 70 70 70 71 71 71 70 70 70 71 71 71 72 71 71 71 71 70 69 69 69 69 68 67 67 67 67 66 67 66 66 67 67 69 68 68 68 68 69 69 69 69 69 69 69 69 69 69 70 70 69
29 23 22 20 17 17 18 17 17 16 19 21 23 24 23 25 28 39 44 56 55 55 50 56 55 56 56 57 59 63 64 65 66 66 66 67 67 67 67 68 68 68 69 69 70 70 70 70 70 70 70 71 71 70 70 70 70 71 71 71 71 71 70 70 70 69 69 68 68 68 67 67 66 66 66 67 66 68 69 67 67 68 68 68 68 68 68 68 68 68 69 69 69 69 70 70 69
26 21 19 18 18 17 19 18 18 19 18 19 20 24 23 24 34 45 45 45 53 52 53 58 58 58 59 62 62 64 65 65 66 66 66 65 66 66 66 66 67 67 68 69 69 70 70 70 70 70 70 71 70 70 70 69 70 70 70 70 70 69 69 70 69 68 69 67 67 67 66 67 65 64 65 67 68 67 67 67 67 68 68 68 68 68 68 68 68 68 69 69 69 69 70 66 67
22 22 19 17 18 19 21 20 20 21 20 21 21 24 23 23 43 41 34 33 36 37 52 57 57 59 63 64 64 64 65 65 65 65 65 65 65 64 65 65 66 66 67 68 69 69 70 70 70 70 70 70 70 70 70 69 69 69 69 69 69 69 70 69 67 68 66 66 66 65 66 66 64 65 66 67 69 68 68 67 67 67 68 68 69 68 68 68 68 69 69 69 69 70 68 67 65
19 20 18 17 18 19 20 21 21 22 23 22 22 29 24 26 38 39 34 32 30 30 41 56 55 57 63 64 64 64 65 65 65 65 65 65 64 64 64 64 65 65 66 67 68 69 69 69 69 69 69 70 70 70 70 69 68 68 68 68 68 68 68 67 66 66 65 64 64 64 64 65 65 64 68 67 68 67 67 69 68 68 68 68 68 70 69 69 69 69 68 69 68 68 68 67 65
17 17 17 18 18 18 20 23 22 23 24 23 23 29 28 31 30 30 34 36 34 31 36 48 55 57 63 64 64 64 64 64 65 65 65 65 65 65 65 64 64 65 66 67 68 69 69 69 69 69 69 69 69 70 69 69 68 68 68 68 68 66 66 64 65 64 64 63 63 64 63 65 63 63 65 65 66 66 64 64 65 65 66 64 69 64 62 63 64 64 65 66 66 68 67 66 66
18 16 16 17 18 17 19 23 22 23 26 23 27 26 24 31 37 26 37 35 38 40 41 48 53 58 63 64 64 64 64 64 64 64 64 65 65 65 65 65 65 66 66 66 67 68 68 68 69 69 69 69 69 69 69 69 69 68 68 67 67 66 66 65 64 64 63 63 63 64 65 64 63 63 63 64 64 65 65 64 64 63 62 63 66 63 63 63 63 65 66 67 67 67 67 66 66
16 16 16 16 18 17 19 21 24 24 25 25 24 26 29 34 34 29 36 37 39 45 47 51 56 60 63 64 64 64 64 64 64 64 64 64 64 64 64 65 65 65 66 66 67 68 68 68 69 69 69 69 69 69 69 69 68 68 68 67 67 66 66 65 64 64 63 63 63 65 65 64 64 63 63 63 64 65 65 64 64 63 64 64 65 65 64 65 65 66 67 67 66 67 67 66 66
23 16 18 17 18 18 19 19 21 24 24 25 25 28 26 29 28 28 28 32 29 41 51 55 57 60 63 63 64 64 64 64 64 64 64 64 65 64 65 65 65 65 66 66 67 67 68 68 68 68 68 69 68 69 68 68 68 68 67 67 67 66 66 65 65 64 65 64 64 65 66 64 65 63 63 63 64 63 65 64 64 63 64 65 66 66 65 66 66 66 67 66 67 67 67 66 66
23 22 21 19 17 18 18 18 20 22 24 24 25 25 25 28 26 27 27 29 27 39 47 55 57 59 62 63 63 63 63 64 64 64 65 65 65 65 65 65 65 65 65 66 67 67 67 68 68 68 68 68 68 68 68 68 68 68 67 67 66 67 66 65 65 64 65 65 65 65 67 64 65 65 64 64 65 64 64 65 65 65 65 65 66 66 67 66 66 66 66 66 65 65 66 66 65
24 24 25 25 24 24 24 20 18 21 24 25 24 24 24 26 26 25 26 28 27 30 39 50 56 58 60 62 63 63 63 63 64 64 64 64 65 65 65 64 65 65 65 65 66 67 67 68 68 68 68 68 68 68 68 68 68 67 67 66 66 67 65 65 65 63 64 64 64 65 66 65 66 66 66 65 65 65 65 66 66 65 66 66 66 66 66 65 65 65 65 65 66 65 65 66 65
20 22 24 24 24 24 24 19 18 18 21 24 23 23 24 24 26 24 37 31 28 27 29 49 55 56 58 60 62 63 63 63 63 64 64 64 64 64 64 64 64 64 65 65 66 67 68 68 68 68 68 68 68 68 68 68 68 67 67 66 66 65 64 64 64 62 63 64 64 65 66 67 66 66 66 65 65 65 65 66 66 66 66 66 66 66 66 66 66 65 64 65 64 65 65 66 64
17 21 23 24 24 24 23 22 21 19 18 20 23 22 23 22 23 22 28 42 38 27 27 42 54 54 57 59 61 62 63 63 63 63 63 63 63 63 63 63 63 64 64 65 66 67 67 68 68 68 68 68 68 68 68 67 67 67 66 66 65 64 63 63 62 62 64 64 65 65 66 67 68 66 66 65 65 65 66 66 66 66 66 66 66 65 66 66 66 66 66 63 62 64 65 65 64
18 21 19 21 23 22 23 22 21 19 17 18 20 19 18 18 18 21 25 35 42 38 27 27 53 54 56 58 60 61 61 62 62 62 62 63 63 63 63 63 63 63 64 64 66 66 67 67 67 68 68 68 68 67 67 67 67 66 66 65 65 64 63 62 61 62 63 64 65 65 66 66 67 66 66 66 66 65 66 65 65 66 65 65 66 66 66 65 65 64 62 60 61 62 64 64 63
22 22 21 21 20 20 21 22 20 18 18 18 18 15 16 17 18 19 36 37 44 36 33 42 50 54 55 57 58 59 60 61 61 62 62 62 62 63 63 63 63 63 63 64 65 66 67 67 67 68 68 68 67 67 67 67 66 66 66 65 65 63 62 62 62 61 63 64 65 65 66 66 67 66 66 65 66 65 65 65 65 65 66 66 66 66 66 64 64 62 60 61 62 62 63 63 60
19 19 22 19 18 16 20 23 21 19 18 18 18 15 15 16 18 20 36 41 37 33 36 51 54 55 55 56 57 58 59 60 61 61 62 62 62 63 63 63 63 63 63 63 64 65 67 67 67 67 68 67 68 67 67 66 66 66 65 64 64 63 62 61 61 61 62 64 65 65 66 66 67 66 66 66 65 65 65 65 64 66 65 66 66 66 65 64 64 61 59 58 58 59 61 61 59
24 16 15 19 17 14 19 23 20 18 18 17 17 15 15 16 18 19 25 36 39 33 37 53 54 54 55 55 56 57 58 60 61 62 62 62 62 62 63 63 63 63 63 63 64 65 66 66 67 67 67 67 67 67 67 66 66 65 65 65 63 63 62 61 60 61 63 64 65 65 66 66 67 66 66 65 65 65 65 64 64 64 65 65 65 65 65 63 62 60 59 58 57 57 59 58 58
24 17 18 17 19 16 17 19 19 18 17 16 16 14 16 16 19 22 22 29 38 34 33 50 55 56 56 55 56 56 58 59 60 61 62 62 62 62 63 63 63 63 63 63 63 65 66 66 67 66 67 67 67 67 66 66 65 65 64 65 63 63 61 60 61 62 64 65 65 65 65 66 66 66 66 65 65 65 65 64 64 64 65 64 64 64 64 63 60 59 59 60 58 57 57 56 55
16 23 19 21 18 18 16 18 19 16 15 14 15 15 15 18 20 24 27 31 36 32 34 44 54 55 55 55 56 56 57 58 59 60 61 62 62 62 63 64 63 63 63 63 63 64 65 66 66 66 67 67 67 67 66 65 65 65 64 64 65 63 62 61 61 63 64 65 65 65 65 66 66 66 66 65 65 65 65 64 64 65 65 64 64 63 63 62 60 58 57 57 56 56 55 55 53
14 17 19 21 23 22 18 16 17 17 15 14 14 14 15 16 20 22 28 34 32 29 30 36 47 53 54 55 55 55 56 57 58 60 61 62 62 62 62 63 63 63 63 63 63 64 65 65 66 66 67 67 67 67 66 65 64 64 63 63 63 62 62 62 63 64 64 65 65 65 66 66 67 65 66 66 65 66 65 64 64 65 65 64 64 63 63 61 59 58 56 55 55 54 54 54 52
14 16 21 23 21 21 20 21 21 19 15 12 13 13 13 16 19 22 25 32 29 27 29 34 40 47 52 53 54 55 56 56 58 60 61 62 62 63 62 63 63 63 63 63 63 64 65 65 66 66 66 67 67 66 66 65 64 63 62 61 61 62 62 63 64 64 64 65 65 66 66 66 66 66 65 65 65 66 65 64 64 65 65 64 63 63 62 59 58 57 55 53 53 52 51 51 51
13 13 16 14 16 16 20 21 21 20 19 15 13 14 13 16 18 21 23 25 29 27 27 30 34 41 45 51 54 55 55 55 57 59 61 62 63 63 62 63 63 63 63 63 63 64 64 65 65 65 66 66 66 66 65 64 63 62 62 62 62 62 62 63 64 64 65 65 65 65 66 66 66 66 66 65 65 66 65 64 64 65 65 63 63 63 62 60 58 57 56 54 51 50 50 50 49
12 11 12 11 12 13 17 18 19 20 21 19 20 19 18 17 19 21 22 25 25 26 27 28 32 38 42 43 46 54 56 57 58 60 61 62 63 63 62 63 63 62 62 63 63 63 64 65 65 65 66 66 66 65 65 64 63 63 62 62 61 62 63 63 63 64 64 65 65 65 66 65 65 65 66 65 65 66 64 64 64 64 64 63 63 63 61 62 58 56 54 53 53 50 49 48 47
14 13 13 13 11 12 14 17 18 19 20 20 20 19 19 21 20 20 21 23 25 26 27 27 31 38 43 45 45 47 54 56 58 59 61 62 63 63 62 62 63 62 62 63 63 64 64 64 65 65 65 65 65 65 64 64 63 63 62 62 63 62 62 64 64 65 65 65 65 65 65 65 65 65 66 66 65 65 64 64 63 63 63 63 63 62 61 59 57 55 54 52 51 54 52 50 49
15 15 14 12 12 12 11 18 18 18 22 18 17 17 19 22 22 21 21 21 23 32 34 34 34 35 43 45 47 50 52 54 58 59 61 62 63 63 62 62 62 63 62 62 63 63 64 64 64 65 65 65 65 64 64 64 63 62 62 63 63 63 63 64 64 65 65 65 65 65 65 65 65 65 66 66 65 64 64 63 63 63 63 63 62 61 60 58 57 56 55 53 52 49 49 48 53
17 13 12 12 12 12 12 13 16 16 14 17 18 19 18 20 19 19 21 22 21 22 32 34 35 39 42 47 49 51 52 54 57 59 60 62 62 62 62 62 62 62 62 62 63 63 64 64 64 64 65 65 65 64 64 63 63 62 62 62 63 63 64 64 64 64 65 65 65 65 65 65 65 65 66 65 65 64 63 63 63 63 62 63 62 61 59 58 57 56 55 54 52 50 48 49 52
16 15 12 12 12 12 12 13 13 15 15 15 20 16 15 17 18 17 18 22 20 22 25 28 30 34 38 42 46 50 53 54 56 57 60 62 62 62 62 62 62 62 62 62 63 63 63 64 64 64 64 65 64 64 64 63 63 62 62 62 62 62 62 63 62 63 64 64 64 65 65 65 65 65 65 65 65 64 63 63 63 62 62 62 62 61 60 58 57 56 55 54 53 53 50 49 49
13 12 14 13 12 12 12 11 12 14 9 15 20 15 14 19 19 18 18 19 19 20 24 26 28 31 35 40 42 42 43 46 51 53 59 62 62 62 62 62 62 62 62 63 63 63 63 63 64 64 64 64 64 64 63 63 62 62 62 61 61 61 62 63 63 64 65 65 65 64 64 65 65 64 64 64 64 64 63 62 62 62 62 62 62 61 60 58 57 56 56 55 54 54 52 49 49
11 14 14 13 12 12 11 11 11 12 20 16 15 13 12 14 15 19 20 21 19 19 20 21 25 28 32 38 42 42 45 46 49 53 59 62 62 62 62 62 62 62 63 63 63 63 63 63 64 64 64 64 64 64 63 63 62 62 61 61 62 62 62 63 63 64 65 65 64 64 64 64 64 64 64 63 63 63 62 62 62 62 62 61 62 60 60 59 58 58 57 56 55 54 53 51 51
11 13 13 12 12 12 12 11 11 11 12 8 11 15 12 15 17 17 20 17 17 19 19 18 19 23 28 32 40 43 45 49 52 55 59 62 62 63 63 62 63 63 63 63 62 63 63 63 64 64 64 64 64 64 63 63 63 62 62 61 62 62 62 63 64 64 64 64 63 62 63 63 63 63 63 63 62 62 62 61 61 60 60 61 62 60 59 59 59 58 57 56 55 55 54 53 52
10 12 12 14 13 12 12 11 11 13 12 10 9 12 10 12 20 16 19 16 16 17 19 19 19 19 23 28 32 41 47 51 54 56 59 62 63 63 63 63 63 63 63 63 63 63 63 63 63 63 63 64 64 64 64 63 63 63 62 62 62 62 63 63 63 63 63 63 62 61 61 61 61 61 61 61 61 61 61 61 60 59 59 60 60 58 57 57 57 58 57 56 55 55 54 55 53
11 10 9 8 10 12 17 15 12 13 11 11 11 10 11 9 14 15 15 18 17 18 19 19 20 20 20 26 29 34 46 53 55 57 59 61 63 63 63 63 63 63 63 63 63 63 63 63 63 63 63 64 64 64 63 63 63 63 62 62 62 62 62 63 63 63 62 62 62 61 60 61 60 60 60 60 60 60 60 60 59 58 58 60 58 57 57 57 56 57 57 56 56 55 54 54 54
12 9 9 9 9 16 12 13 15 8 8 11 12 12 11 8 13 16 16 19 21 19 18 18 18 18 20 23 28 32 43 53 56 58 59 61 62 63 63 63 63 62 63 62 62 62 62 63 63 63 63 63 64 64 64 63 63 63 62 62 62 63 63 63 63 62 62 62 61 60 60 59 59 59 59 58 58 58 59 59 59 57 58 57 56 56 56 55 54 54 55 56 56 55 54 55 53
10 10 11 8 5 10 4 9 7 8 8 10 10 11 10 9 10 20 17 16 16 17 17 18 19 18 19 18 26 33 42 53 57 58 59 61 62 62 62 63 63 62 62 62 62 62 62 62 63 63 63 63 64 64 64 63 63 63 62 62 62 63 63 63 63 63 62 62 61 60 59 59 58 58 58 58 57 56 58 57 56 56 56 56 55 54 53 53 52 53 53 54 54 54 53 53 52
9 8 10 8 3 3 0 6 7 10 11 11 10 12 8 9 11 13 12 13 13 13 16 18 17 18 19 18 25 32 41 52 57 59 59 60 61 62 62 63 62 62 62 62 62 62 62 62 62 62 63 63 64 64 64 63 63 63 63 63 63 63 63 63 63 63 62 62 61 61 60 59 59 59 58 58 57 55 56 57 56 55 55 54 54 53 52 52 51 51 52 52 52 52 52 52 52
9 7 7 11 9 6 0 9 4 5 8 10 10 9 12 7 13 14 13 13 12 12 13 13 16 15 17 16 19 30 39 48 56 58 60 60 61 62 62 63 63 62 62 62 63 62 62 62 62 62 62 63 64 64 64 63 63 63 63 63 63 63 63 63 63 63 62 62 61 61 60 60 59 59 58 58 56 55 55 55 55 54 53 53 53 53 52 51 52 51 50 50 49 48 49 49 48
9 7 7 9 9 11 6 11 12 12 10 9 10 11 15 8 21 20 16 13 12 15 14 18 15 16 17 17 19 26 38 46 53 57 59 60 61 62 62 62 63 63 62 63 63 63 63 62 62 62 62 63 64 64 64 64 63 63 63 63 63 63 63 63 63 63 62 62 62 61 60 59 59 58 57 57 55 54 54 54 54 52 52 52 52 52 51 50 50 49 49 48 48 48 47 47 46
14 9 9 7 9 9 8 11 16 15 13 8 11 14 13 14 10 11 18 17 13 14 15 15 17 18 19 21 22 25 36 44 51 57 59 60 61 62 62 62 63 63 63 63 63 63 63 63 63 62 63 63 64 64 64 64 64 63 63 63 63 63 63 63 63 62 62 62 62 61 60 59 58 57 57 56 54 53 53 53 52 51 51 52 52 52 51 50 49 50 48 47 47 47 47 45 46
18 10 11 19 17 11 12 7 8 6 7 9 15 10 10 6 7 14 10 16 17 17 17 17 21 20 19 21 23 26 34 43 48 54 58 60 61 61 62 62 62 63 63 63 63 63 63 63 63 63 63 63 64 64 64 64 64 63 63 63 63 63 63 63 63 62 62 62 61 60 59 58 57 57 56 55 53 52 52 54 51 51 51 51 51 51 50 49 49 48 47 47 46 47 46 46 46
12 16 31 15 10 12 15 8 5 2 6 7 14 17 12 9 9 18 9 11 13 15 17 17 15 15 18 20 21 24 31 40 47 51 55 58 60 61 62 62 62 63 63 63 63 63 63 63 63 63 63 63 64 64 64 64 64 63 63 63 62 63 63 63 63 62 62 62 61 60 59 58 57 56 56 54 52 51 51 51 50 50 50 50 50 50 50 49 48 47 47 46 46 45 45 44 45
12 13 20 27 24 20 18 12 17 10 4 10 12 16 15 16 12 18 15 13 12 12 13 15 17 18 19 20 22 23 28 38 45 50 53 56 58 60 61 62 62 62 63 63 63 64 63 64 63 63 63 63 64 64 64 64 64 64 63 63 63 63 63 63 62 62 62 61 61 60 59 57 57 56 55 53 51 50 50 49 49 49 49 49 49 49 49 48 47 47 46 45 45 45 44 44 44
17 16 19 23 22 27 22 22 19 12 10 11 10 9 16 22 22 15 14 17 16 15 15 15 17 19 20 20 22 25 26 33 43 49 52 55 57 59 61 62 62 63 63 63 63 63 64 64 64 63 63 63 64 64 64 64 64 64 63 63 63 63 63 63 62 62 62 61 60 59 58 58 56 55 54 52 51 50 49 49 48 49 48 49 48 48 48 47 47 46 46 45 44 44 43 43 44
18 18 16 18 18 17 17 15 22 18 15 13 11 12 18 24 29 26 21 19 20 19 20 22 20 20 21 22 23 23 27 29 38 47 52 54 56 58 59 61 62 62 62 63 63 64 64 64 64 64 64 63 64 64 64 64 64 64 63 63 63 63 63 62 62 62 61 61 60 59 58 57 56 55 53 51 50 49 49 48 48 48 48 48 48 48 47 47 46 45 45 45 44 43 43 43 43